Date String (YYYY-MM-DD hh:mm:ss) UTC,Instrument flags,absolute air pressure of the measurement (hPa),sample flow rate (lpm),inlet stack bypass flow (lpm),air temperature of the measurement (°C),ambient temperature measured by the external sensor (°C),aerosol sample conditioner tube jacket temperature (°C),OPC LED temperature (°C),internal box temperature (°C),relative humidity of the measurement (%),span deviation,mass concentration of particles derived from Lorenz-Mie calculation of OPC scattering (μg/m³),mass concentration of particles derived from Lorenz-Mie calculation of OPC scattering (μg/m³),mass concentration of particles derived from Lorenz-Mie calculation of OPC scattering (μg/m³)
DateTimeUTC,F1_M11,P_M11,Q1_M11,Q2_M11,T1_M11,T2_M11,T3_M11,T4_M11,T5_M11,U1_M11,ZSPAN_M11,X2_M11,X0_M11,X1_M11
2024-02-25 17:00:00,SystemResetWarning,0824.7,5.00,000.00,019.9,019.3,000.0,028.0,021.6,07.4,0000.0,0003.57,0013.79,0001.45
2024-02-25 17:01:00,SystemResetWarning,0824.7,4.99,000.00,020.0,019.3,000.0,028.0,021.6,07.5,0000.0,0003.57,0013.75,0001.45
2024-02-25 17:02:00,SystemResetWarning,0824.7,5.00,000.00,020.0,019.4,000.0,028.0,021.6,07.7,0000.0,0003.58,0013.98,0001.44
2024-02-25 17:03:00,SystemResetWarning,0824.7,5.01,000.00,020.0,019.4,000.0,028.0,021.7,07.7,0000.0,0003.67,0013.82,0001.45
2024-02-25 17:04:00,SystemResetWarning,0824.8,5.00,000.00,020.0,019.4,000.0,028.1,021.6,07.5,0000.0,0003.66,0013.21,0001.45
2024-02-25 17:05:00,SystemResetWarning,0824.8,5.01,000.00,020.0,019.4,000.0,028.1,021.7,07.6,0000.0,0003.67,0012.34,0001.45
2024-02-25 17:06:00,SystemResetWarning,0824.9,5.01,000.00,020.0,019.4,000.0,028.1,021.7,07.1,0000.0,0003.61,0011.36,0001.45
2024-02-25 17:07:00,SystemResetWarning,0824.9,4.99,000.00,020.0,019.4,000.0,028.1,021.7,07.0,0000.0,0003.52,0010.33,0001.45
2024-02-25 17:08:00,SystemResetWarning,0824.9,4.99,000.00,020.0,019.4,000.0,028.1,021.7,07.4,0000.0,0003.50,0010.54,0001.44
2024-02-25 17:09:00,SystemResetWarning,0824.7,5.00,000.00,020.0,019.5,000.0,028.1,021.7,07.7,0000.0,0003.53,0010.69,0001.46
2024-02-25 17:10:00,SystemResetWarning,0824.9,5.01,000.00,020.1,019.5,000.0,028.1,021.7,07.5,0000.0,0003.54,0010.06,0001.47
2024-02-25 17:11:00,SystemResetWarning,0824.9,5.00,000.00,020.1,019.5,000.0,028.1,021.7,07.6,0000.0,0003.52,0010.24,0001.48
2024-02-25 17:12:00,SystemResetWarning,0824.8,5.00,000.00,020.1,019.5,000.0,028.1,021.7,07.6,0000.0,0003.50,0010.49,0001.48
2024-02-25 17:13:00,SystemResetWarning,0824.8,5.00,000.00,020.1,019.5,000.0,028.1,021.7,07.5,0000.0,0003.46,0010.15,0001.49
2024-02-25 17:14:00,SystemResetWarning,0824.7,5.00,000.00,020.1,019.5,000.0,028.1,021.7,07.3,0000.0,0003.37,0009.93,0001.49
2024-02-25 17:15:00,SystemResetWarning,0824.8,5.00,000.00,020.1,019.5,000.0,028.2,021.8,07.4,0000.0,0003.34,0010.31,0001.46
2024-02-25 17:16:00,SystemResetWarning,0825.0,5.00,000.00,020.1,019.5,000.0,028.2,021.7,07.4,0000.0,0003.35,0009.91,0001.47
2024-02-25 17:17:00,SystemResetWarning,0824.9,4.98,000.00,020.1,019.5,000.0,028.2,021.7,07.2,0000.0,0003.40,0010.32,0001.46
2024-02-25 17:18:00,SystemResetWarning,0824.8,4.99,000.00,020.1,019.5,000.0,028.2,021.7,07.3,0000.0,0003.43,0010.63,0001.44
2024-02-25 17:19:00,SystemResetWarning,0824.9,5.00,000.00,020.1,019.5,000.0,028.2,021.8,07.1,0000.0,0003.46,0010.30,0001.44
2024-02-25 17:20:00,SystemResetWarning,0825.0,5.00,000.00,020.1,019.5,000.0,028.2,021.8,07.3,0000.0,0003.40,0010.09,0001.44
2024-02-25 17:21:00,SystemResetWarning,0824.9,5.00,000.00,020.2,019.6,000.0,028.2,021.8,07.5,0000.0,0003.41,0010.06,0001.43
2024-02-25 17:22:00,SystemResetWarning,0825.0,5.00,000.00,020.2,019.6,000.0,028.2,021.8,07.3,0000.0,0003.38,0009.56,0001.42
2024-02-25 17:23:00,SystemResetWarning,0825.0,5.00,000.00,020.2,019.6,000.0,028.2,021.9,07.4,0000.0,0003.37,0009.32,0001.42
2024-02-25 17:24:00,SystemResetWarning,0824.9,5.01,000.00,020.2,019.6,000.0,028.2,021.9,07.3,0000.0,0003.36,0009.33,0001.42
2024-02-25 17:25:00,SystemResetWarning,0824.8,5.00,000.00,020.2,019.6,000.0,028.2,021.9,07.5,0000.0,0003.35,0009.22,0001.41
2024-02-25 17:26:00,SystemResetWarning,0824.9,5.00,000.00,020.2,019.6,000.0,028.3,021.9,07.5,0000.0,0003.40,0008.69,0001.42
2024-02-25 17:27:00,SystemResetWarning,0824.8,5.00,000.00,020.2,019.7,000.0,028.3,021.8,07.3,0000.0,0003.42,0009.32,0001.43
2024-02-25 17:28:00,SystemResetWarning,0824.7,4.99,000.00,020.2,019.7,000.0,028.3,021.8,07.4,0000.0,0003.36,0009.91,0001.42
2024-02-25 17:29:00,SystemResetWarning,0824.9,5.00,000.00,020.2,019.6,000.0,028.3,021.9,07.3,0000.0,0003.37,0009.96,0001.43
2024-02-25 17:30:00,SystemResetWarning,0825.0,5.00,000.00,020.2,019.7,000.0,028.3,021.9,07.2,0000.0,0003.34,0010.15,0001.43
2024-02-25 17:31:00,SystemResetWarning,0824.9,5.00,000.00,020.3,019.7,000.0,028.3,021.9,07.3,0000.0,0003.37,0010.90,0001.43
2024-02-25 17:32:00,SystemResetWarning,0824.8,5.00,000.00,020.3,019.7,000.0,028.3,021.9,07.4,0000.0,0003.35,0011.44,0001.43
2024-02-25 17:33:00,SystemResetWarning,0824.7,5.00,000.00,020.3,019.7,000.0,028.3,021.9,07.3,0000.0,0003.35,0011.59,0001.42
2024-02-25 17:34:00,SystemResetWarning,0824.8,5.00,000.00,020.3,019.7,000.0,028.3,021.9,07.0,0000.0,0003.31,0011.36,0001.40
2024-02-25 17:35:00,SystemResetWarning,0824.8,5.00,000.00,020.3,019.7,000.0,028.4,022.0,07.1,0000.0,0003.31,0011.29,0001.39
2024-02-25 17:36:00,SystemResetWarning,0824.9,5.00,000.00,020.3,019.7,000.0,028.4,022.0,07.3,0000.0,0003.38,0011.73,0001.40
2024-02-25 17:37:00,SystemResetWarning,0824.9,5.00,000.00,020.3,019.7,000.0,028.4,022.0,07.4,0000.0,0003.45,0011.86,0001.40
2024-02-25 17:38:00,SystemResetWarning,0824.9,5.00,000.00,020.3,019.8,000.0,028.4,022.0,07.6,0000.0,0003.45,0011.69,0001.40
2024-02-25 17:39:00,SystemResetWarning,0824.9,5.00,000.00,020.3,019.8,000.0,028.4,022.0,07.5,0000.0,0003.46,0011.00,0001.41
2024-02-25 17:40:00,SystemResetWarning,0825.0,4.99,000.00,020.4,019.8,000.0,028.4,022.0,07.4,0000.0,0003.50,0010.82,0001.42
2024-02-25 17:41:00,SystemResetWarning,0824.9,5.00,000.00,020.4,019.8,000.0,028.4,022.0,07.0,0000.0,0003.51,0010.50,0001.43
2024-02-25 17:42:00,SystemResetWarning,0824.9,5.00,000.00,020.4,019.8,000.0,028.4,022.1,07.4,0000.0,0003.51,0010.10,0001.43
2024-02-25 17:43:00,SystemResetWarning,0824.9,5.01,000.00,020.4,019.8,000.0,028.4,022.1,07.2,0000.0,0003.51,0009.35,0001.43
2024-02-25 17:44:00,SystemResetWarning,0824.9,5.00,000.00,020.4,019.9,000.0,028.4,022.1,07.3,0000.0,0003.53,0009.18,0001.44
2024-02-25 17:45:00,SystemResetWarning,0824.9,5.00,000.00,020.5,019.9,000.0,028.4,022.1,07.2,0000.0,0003.61,0010.06,0001.46
2024-02-25 17:46:00,SystemResetWarning,0824.9,5.00,000.00,020.5,019.9,000.0,028.5,022.1,07.0,0000.0,0003.68,0010.41,0001.48
2024-02-25 17:47:00,SystemResetWarning,0825.0,5.00,000.00,020.5,019.9,000.0,028.5,022.1,06.7,0000.0,0003.66,0010.16,0001.47
2024-02-25 17:48:00,SystemResetWarning,0824.9,4.99,000.00,020.5,019.9,000.0,028.5,022.2,06.6,0000.0,0003.61,0010.85,0001.48
2024-02-25 17:49:00,SystemResetWarning,0824.9,5.00,000.00,020.5,019.9,000.0,028.5,022.2,06.5,0000.0,0003.57,0010.54,0001.49
2024-02-25 17:50:00,SystemResetWarning,0824.9,4.99,000.00,020.5,020.0,000.0,028.5,022.2,06.5,0000.0,0003.57,0010.36,0001.49
2024-02-25 17:51:00,SystemResetWarning,0825.0,5.00,000.00,020.5,020.0,000.0,028.5,022.2,06.8,0000.0,0003.60,0010.98,0001.51
2024-02-25 17:52:00,SystemResetWarning,0825.0,5.00,000.00,020.5,020.0,000.0,028.5,022.2,06.9,0000.0,0003.59,0011.16,0001.51
2024-02-25 17:53:00,SystemResetWarning,0824.9,5.00,000.00,020.6,020.0,000.0,028.5,022.2,07.1,0000.0,0003.63,0011.90,0001.52
2024-02-25 17:54:00,SystemResetWarning,0824.9,5.00,000.00,020.6,020.0,000.0,028.5,022.2,07.1,0000.0,0003.66,0012.70,0001.52
2024-02-25 17:55:00,SystemResetWarning,0824.9,5.00,000.00,020.6,020.0,000.0,028.6,022.2,07.0,0000.0,0003.74,0012.87,0001.55
2024-02-25 17:56:00,SystemResetWarning,0825.0,5.01,000.00,020.6,020.0,000.0,028.6,022.3,07.1,0000.0,0003.71,0012.48,0001.55
2024-02-25 17:57:00,SystemResetWarning,0824.9,5.00,000.00,020.6,020.0,000.0,028.6,022.3,06.5,0000.0,0003.67,0012.78,0001.55
2024-02-25 17:58:00,SystemResetWarning,0825.0,5.00,000.00,020.6,020.1,000.0,028.6,022.3,06.7,0000.0,0003.69,0013.32,0001.56
2024-02-25 17:59:00,SystemResetWarning,0825.1,5.00,000.00,020.6,020.1,000.0,028.6,022.3,07.0,0000.0,0003.71,0012.66,0001.57
